Malaysia Virtual Airlines Airport Information Service

Brisbane Airport

ICAO: YBBN Country: Australia
Latitude: -27.3842 Longitude: 153.117
Latest Arrival : MH135 (WMKK-YBBN) Latest Departure : MH134 (YBBN-WMKK)


WX CaptureLIVE
Data provided by noaa.gov | Fetched at 05:31:35

METAR : YBBN 290500Z 12012KT 9999 FEW020 OVC049 25/20 Q1015

TAF : YBBN 290229Z 2903/3006 12014KT 9999 FEW030 BKN045 FM291200 14010KT 9999 -SHRA SCT018 BKN030 FM291500 13008KT 9999 -RA SCT012 BKN018 FM292100 11012KT 4000 RA BKN010 FM300200 08012KT 9999 -SHRA SCT012 BKN018 INTER 2915/2918 4000 SHRA BKN010 TEMPO 2918/3003 2000 RA BKN005 TEMPO 3003/3006 3000 SHRA BKN010


Runway Data for YBBN
Data provided by openaviationdata.com

Runway ID Mag Var Hdg Length Elevation Surface ILS Freq ILS Id ILS Slope
1 11 15° 11709 ft 13 ft Asphalt 109.5 IBA 3
14 11 134° 5785 ft 13 ft Asphalt -- -- --
19 11 195° 11709 ft 13 ft Asphalt 110.1 IBS 3
32 11 314° 5785 ft 13 ft Asphalt -- -- --

Brisbane Airport, Australia
Use only for reference purposes



Not for navigational purposes.